Weather History for New Richmond, WI

Change the Weather History Date:

Monday, February 10, 2014

  Actual Average (KMSP) Record (KMSP)
Temperature  
Mean Temperature -8 °F 19 °F  
Max Temperature 3 °F 27 °F 49 °F (1877)
Min Temperature -20 °F 11 °F -24 °F (1885)
Degree Days  
Heating Degree Days 74 46  
Month to date heating degree days 471  
Since 1 July heating degree days 5025  
Cooling Degree Days 0 0  
Month to date cooling degree days 0  
Year to date cooling degree days 0  
Moisture  
Dew Point -16 °F    
Average Humidity 70    
Maximum Humidity 80    
Minimum Humidity 53    
Precipitation  
Precipitation 0.00 in 0.03 in 0.62 in (2013)
Month to date precipitation 0.23  
Year to date precipitation 1.13  
Snow  
Snow 0.00 in 0.30 in 4.30 in (1953)
Month to date snowfall 2.7  
Since 1 July snowfall 36.7  
Snow Depth -    
Sea Level Pressure  
Sea Level Pressure 30.41 in    
Wind  
Wind Speed 4 mph (WNW)    
Max Wind Speed 10 mph    
Max Gust Speed -    
Visibility 10 miles    
Events      
T = Trace of Precipitation, MM = Missing Value Source: NWS Daily Summary

Daily Weather History Graph

Daily Weather History Graph

Search for Another Location

Airport:

Trip Planner

Search our weather history database for the weather conditions in past years. The results will help you decide how hot, cold, wet, or windy it might be!

Date:

Astronomy

Feb. 10, 2014 Rise Set
Actual Time 7:18 AM CST 5:30 PM CST
Civil Twilight 6:47 AM CST 6:01 PM CST
Nautical Twilight 6:13 AM CST 6:36 PM CST
Astronomical Twilight 5:39 AM CST 7:10 PM CST
Moon 1:55 PM CST (2/10) 4:16 AM CST (2/10)
Length of Visible Light 11h 13m
Length of Day
10h 12m
Waxing Gibbous, 85% of the Moon is Illuminated
Feb 10
Waxing Gibbous
Feb 14
Full
Feb 22
Last Quarter
Mar 1
New
Mar 8
First Quarter

Hourly Weather History & Observations

Time (CST) Temp. Windchill Dew Point Humidity Pressure Visibility Wind Dir Wind Speed Gust Speed Precip Events Conditions
12:15 AM -8.7 °F -17.8 °F -14.3 °F 77% 30.34 in 10.0 mi WSW 3.5 mph - N/A   Clear
12:35 AM -8.5 °F -19.8 °F -14.3 °F 76% 30.35 in 10.0 mi West 4.6 mph - N/A   Clear
12:55 AM -10.5 °F -19.8 °F -15.7 °F 78% 30.36 in 10.0 mi West 3.5 mph - N/A   Clear
1:15 AM -10.3 °F -19.6 °F -15.3 °F 78% 30.36 in 10.0 mi WSW 3.5 mph - N/A   Clear
1:35 AM -10.5 °F - -15.5 °F 78% 30.36 in 10.0 mi Calm Calm - N/A   Clear
1:55 AM -10.5 °F -19.8 °F -15.5 °F 78% 30.37 in 10.0 mi West 3.5 mph - N/A   Clear
2:15 AM -11.4 °F -23.2 °F -16.2 °F 79% 30.37 in 10.0 mi West 4.6 mph - N/A   Clear
2:35 AM -12.1 °F -25.9 °F -16.8 °F 80% 30.37 in 10.0 mi West 5.8 mph - N/A   Clear
2:55 AM -15.5 °F -28.0 °F -20.4 °F 79% 30.37 in 10.0 mi West 4.6 mph - N/A   Clear
3:15 AM -15.0 °F -27.4 °F -19.7 °F 79% 30.37 in 10.0 mi West 4.6 mph - N/A   Clear
3:35 AM -13.0 °F -27.0 °F -17.9 °F 79% 30.37 in 10.0 mi West 5.8 mph - N/A   Clear
3:55 AM -14.3 °F -28.5 °F -19.1 °F 79% 30.38 in 10.0 mi West 5.8 mph - N/A   Clear
4:15 AM -15.5 °F -30.0 °F -20.2 °F 79% 30.38 in 10.0 mi West 5.8 mph - N/A   Clear
4:35 AM -14.3 °F -28.5 °F -19.1 °F 79% 30.39 in 10.0 mi West 5.8 mph - N/A   Clear
4:55 AM -16.6 °F - -21.6 °F 78% 30.39 in 10.0 mi Calm Calm - N/A   Clear
5:15 AM -17.5 °F -32.3 °F -22.5 °F 78% 30.40 in 10.0 mi West 5.8 mph - N/A   Clear
5:35 AM -16.6 °F -31.3 °F -21.6 °F 78% 30.41 in 10.0 mi West 5.8 mph - N/A   Clear
5:55 AM -17.3 °F -32.1 °F -22.9 °F 76% 30.41 in 10.0 mi West 5.8 mph - N/A   Clear
6:15 AM -16.6 °F -32.9 °F -21.8 °F 77% 30.41 in 10.0 mi WNW 6.9 mph - N/A   Clear
6:35 AM -15.9 °F -28.4 °F -21.5 °F 76% 30.41 in 10.0 mi West 4.6 mph - N/A   Clear
6:55 AM -16.1 °F -28.6 °F -21.1 °F 78% 30.41 in 10.0 mi WNW 4.6 mph - N/A   Clear
7:15 AM -15.5 °F -28.0 °F -20.6 °F 78% 30.42 in 10.0 mi WNW 4.6 mph - N/A   Clear
7:35 AM -16.6 °F -26.8 °F -22.0 °F 76% 30.42 in 10.0 mi WNW 3.5 mph - N/A   Clear
7:55 AM -15.9 °F -26.0 °F -20.9 °F 78% 30.43 in 10.0 mi West 3.5 mph - N/A   Clear
8:15 AM -16.2 °F -26.4 °F -21.3 °F 78% 30.43 in 10.0 mi WNW 3.5 mph - N/A   Clear
8:35 AM -14.8 °F - -19.8 °F 78% 30.43 in 10.0 mi Calm Calm - N/A   Clear
8:55 AM -13.9 °F -26.1 °F -18.8 °F 79% 30.43 in 10.0 mi NW 4.6 mph - N/A   Clear
9:15 AM -12.5 °F -22.1 °F -17.9 °F 77% 30.44 in 10.0 mi NW 3.5 mph - N/A   Clear
9:35 AM -11.4 °F -23.2 °F -16.8 °F 77% 30.44 in 10.0 mi NW 4.6 mph - N/A   Clear
9:55 AM -9.8 °F -21.3 °F -15.5 °F 76% 30.43 in 10.0 mi NNW 4.6 mph - N/A   Clear
10:15 AM -8.1 °F -22.7 °F -14.8 °F 73% 30.43 in 10.0 mi NNW 6.9 mph - N/A   Clear
10:55 AM -6.0 °F -20.1 °F -14.8 °F 66% 30.44 in 10.0 mi NW 6.9 mph - N/A   Clear
11:15 AM -4.4 °F -19.5 °F -14.4 °F 62% 30.44 in 10.0 mi West 8.1 mph - N/A   Clear
11:35 AM -4.0 °F -17.8 °F -14.4 °F 61% 30.44 in 10.0 mi NW 6.9 mph - N/A   Clear
11:55 AM -2.4 °F -12.7 °F -13.7 °F 59% 30.43 in 10.0 mi WNW 4.6 mph - N/A   Clear
12:15 PM -1.7 °F -11.8 °F -13.5 °F 57% 30.43 in 10.0 mi West 4.6 mph - N/A   Clear
12:35 PM -0.6 °F -14.9 °F -12.3 °F 58% 30.43 in 10.0 mi WNW 8.1 mph - N/A   Clear
12:55 PM -0.0 °F -16.3 °F -12.1 °F 57% 30.43 in 10.0 mi WNW 10.4 mph - N/A   Clear
1:15 PM 0.5 °F -14.6 °F -11.4 °F 57% 30.42 in 10.0 mi NW 9.2 mph - N/A   Clear
1:35 PM 1.8 °F -12.0 °F -11.7 °F 53% 30.42 in 10.0 mi WSW 8.1 mph - N/A   Clear
1:55 PM 2.3 °F -8.8 °F -11.0 °F 54% 30.41 in 10.0 mi West 5.8 mph - N/A   Clear
2:15 PM 2.7 °F -10.9 °F -10.7 °F 54% 30.41 in 10.0 mi West 8.1 mph - N/A   Clear
2:35 PM 3.0 °F -8.0 °F -10.3 °F 54% 30.41 in 10.0 mi West 5.8 mph - N/A   Clear
2:55 PM 3.2 °F -11.3 °F -9.4 °F 56% 30.41 in 10.0 mi WNW 9.2 mph - N/A   Clear
3:15 PM 3.6 °F -10.9 °F -9.4 °F 55% 30.41 in 10.0 mi NW 9.2 mph - N/A   Clear
3:35 PM 3.6 °F -9.8 °F -9.4 °F 55% 30.41 in 10.0 mi NW 8.1 mph - N/A   Clear
3:55 PM 3.7 °F -9.6 °F -9.4 °F 55% 30.41 in 10.0 mi NW 8.1 mph - N/A   Clear
4:15 PM 3.7 °F -8.4 °F -9.2 °F 55% 30.41 in 10.0 mi WNW 6.9 mph - N/A   Clear
4:35 PM 2.5 °F -7.0 °F -9.6 °F 57% 30.41 in 10.0 mi NW 4.6 mph - N/A   Clear
4:55 PM 2.8 °F -6.6 °F -9.8 °F 56% 30.41 in 10.0 mi WNW 4.6 mph - N/A   Clear
5:15 PM 2.3 °F -7.2 °F -9.8 °F 57% 30.42 in 10.0 mi WNW 4.6 mph - N/A   Clear
5:35 PM 0.3 °F -7.5 °F -11.2 °F 58% 30.42 in 10.0 mi West 3.5 mph - N/A   Clear
5:55 PM 1.4 °F -8.3 °F -9.8 °F 60% 30.43 in 10.0 mi WNW 4.6 mph - N/A   Clear
6:15 PM 0.3 °F - -10.1 °F 61% 30.43 in 10.0 mi Calm Calm - N/A   Clear
6:35 PM 0.5 °F -7.3 °F -9.8 °F 62% 30.43 in 10.0 mi WNW 3.5 mph - N/A   Clear
6:55 PM -6.7 °F -15.5 °F -15.2 °F 67% 30.43 in 10.0 mi West 3.5 mph - N/A   Clear
7:15 PM -6.0 °F - -13.2 °F 71% 30.43 in 10.0 mi Calm Calm - N/A   Clear
7:55 PM -11.0 °F - -16.8 °F 76% 30.43 in 10.0 mi Calm Calm - N/A   Clear
8:15 PM -12.1 °F -21.7 °F -18.0 °F 75% 30.43 in 10.0 mi SW 3.5 mph - N/A   Clear
8:35 PM -11.4 °F -20.8 °F -16.6 °F 78% 30.44 in 10.0 mi SW 3.5 mph - N/A   Clear
8:55 PM -10.7 °F - -15.7 °F 78% 30.44 in 10.0 mi Calm Calm - N/A   Clear
9:15 PM -11.2 °F - -15.7 °F 80% 30.44 in 10.0 mi Calm Calm - N/A   Clear
9:35 PM -12.3 °F - -17.0 °F 80% 30.44 in 10.0 mi Calm Calm - N/A   Clear
9:55 PM -17.9 °F - -23.3 °F 76% 30.44 in 10.0 mi Calm Calm - N/A   Clear
10:15 PM -16.4 °F - -21.6 °F 77% 30.44 in 10.0 mi Calm Calm - N/A   Clear
10:35 PM -16.6 °F - -22.5 °F 74% 30.44 in 10.0 mi Calm Calm - N/A   Clear
10:55 PM -20.0 °F - -25.8 °F 75% 30.44 in 10.0 mi Calm Calm - N/A   Clear
11:15 PM -17.5 °F - -22.5 °F 78% 30.44 in 10.0 mi Calm Calm - N/A   Clear
11:35 PM -20.4 °F - -26.0 °F 75% 30.44 in 10.0 mi Calm Calm - N/A   Clear
11:55 PM -20.7 °F - -26.3 °F 75% 30.44 in 10.0 mi Calm Calm - N/A   Clear